| time (UTC) | temp F | wind direction | speed knots | gust knots | rain 1hr in | rain 24hr in | rain mn in | humidity % | barometer mb |
| 20260504023840 | 62 | 68 | 0.0 | 3.5 | 0.00 | 0.00 | 0.00 | 49 | 1008.6 |
| 20260504022850 | 63 | 75 | 0.9 | 3.5 | 0.00 | 0.00 | 0.00 | 48 | 1008.3 |
| 20260504021855 | 64 | 106 | 0.0 | 0.0 | 0.00 | 0.00 | 0.00 | 46 | 1008.6 |
| 20260504020859 | 64 | 96 | 0.9 | 4.3 | 0.00 | 0.00 | 0.00 | 45 | 1008.7 |
| 20260504015901 | 65 | 78 | 1.7 | 7.8 | 0.00 | 0.00 | 0.00 | 45 | 1008.8 |
| 20260504014859 | 66 | 104 | 1.7 | 7.8 | 0.00 | 0.00 | 0.00 | 43 | 1008.9 |
| 20260504013826 | 66 | 86 | 2.6 | 7.0 | 0.00 | 0.00 | 0.00 | 42 | 1008.9 |
| 20260504012757 | 67 | 130 | 1.7 | 8.7 | 0.00 | 0.00 | 0.00 | 40 | 1008.8 |
| 20260504011803 | 69 | 161 | 4.3 | 8.7 | 0.00 | 0.00 | 0.00 | 37 | 1008.9 |
| 20260504010820 | 69 | 142 | 3.5 | 7.8 | 0.00 | 0.00 | 0.00 | 37 | 1009.0 |
| 20260504004739 | 67 | 126 | 3.5 | 7.8 | 0.00 | 0.00 | 0.00 | 39 | 1009.0 |
| 20260504003744 | 67 | 150 | 2.6 | 7.0 | 0.00 | 0.00 | 0.00 | 39 | 1009.2 |
| 20260504001612 | 67 | 57 | 3.5 | 8.7 | 0.00 | 0.00 | 0.00 | 41 | 1009.4 |
| 20260503235507 | 67 | 67 | 4.3 | 10.4 | 0.00 | 0.00 | 0.00 | 43 | 1009.6 |
| 20260503234443 | 67 | 53 | 4.3 | 10.4 | 0.00 | 0.00 | 0.00 | 43 | 1009.6 |
| 20260503232330 | 68 | 53 | 4.3 | 13.0 | 0.00 | 0.00 | 0.00 | 42 | 1009.8 |
| 20260503231346 | 67 | 105 | 7.8 | 13.0 | 0.00 | 0.00 | 0.00 | 42 | 1009.8 |
| 20260503230351 | 68 | 44 | 5.2 | 10.4 | 0.00 | 0.00 | 0.00 | 41 | 1010.0 |
| 20260503225334 | 70 | 73 | 5.2 | 10.4 | 0.00 | 0.00 | 0.00 | 40 | 1010.2 |
| 20260503224326 | 69 | 88 | 6.1 | 11.3 | 0.00 | 0.00 | 0.00 | 41 | 1010.2 |
| 20260503222140 | 67 | 55 | 7.0 | 13.0 | 0.00 | 0.00 | 0.00 | 44 | 1010.5 |
| 20260503221200 | 67 | 68 | 6.1 | 13.0 | 0.00 | 0.00 | 0.00 | 44 | 1010.5 |
| 20260503220159 | 65 | 57 | 7.0 | 13.0 | 0.00 | 0.00 | 0.00 | 45 | 1010.6 |
| 20260503215203 | 66 | 64 | 6.1 | 11.3 | 0.00 | 0.00 | 0.00 | 44 | 1010.8 |
| 20260503214144 | 66 | 84 | 7.0 | 12.2 | 0.00 | 0.00 | 0.00 | 45 | 1011.1 |
| 20260503213112 | 68 | 54 | 7.0 | 13.9 | 0.00 | 0.00 | 0.00 | 43 | 1011.3 |
| 20260503212055 | 68 | 36 | 4.3 | 10.4 | 0.00 | 0.00 | 0.00 | 44 | 1011.6 |
| 20260503211114 | 67 | 56 | 5.2 | 14.8 | 0.00 | 0.00 | 0.00 | 45 | 1011.7 |
| 20260503210139 | 66 | 19 | 7.8 | 14.8 | 0.00 | 0.00 | 0.00 | 45 | 1011.9 |
| 20260503205108 | 67 | 47 | 7.0 | 13.0 | 0.00 | 0.00 | 0.00 | 44 | 1012.0 |
| 20260503204132 | 67 | 32 | 7.0 | 14.8 | 0.00 | 0.00 | 0.00 | 45 | 1012.3 |
| 20260503203108 | 69 | 84 | 6.1 | 15.6 | 0.00 | 0.00 | 0.00 | 43 | 1012.4 |
| 20260503202125 | 68 | 74 | 7.0 | 15.6 | 0.00 | 0.00 | 0.00 | 43 | 1012.6 |
| 20260503201053 | 66 | 68 | 7.0 | 13.0 | 0.00 | 0.00 | 0.00 | 45 | 1012.8 |
| 20260503195017 | 67 | 105 | 6.1 | 12.2 | 0.00 | 0.00 | 0.00 | 43 | 1013.3 |
| 20260503194012 | 67 | 92 | 7.0 | 15.6 | 0.00 | 0.00 | 0.00 | 44 | 1013.5 |
| 20260503192942 | 67 | 79 | 8.7 | 15.6 | 0.00 | 0.00 | 0.00 | 44 | 1013.6 |
| 20260503192004 | 67 | 74 | 5.2 | 13.0 | 0.00 | 0.00 | 0.00 | 43 | 1013.7 |
| 20260503191009 | 67 | 100 | 6.1 | 13.0 | 0.00 | 0.00 | 0.00 | 46 | 1014.2 |
| 20260503185948 | 67 | 71 | 6.1 | 14.8 | 0.00 | 0.00 | 0.00 | 46 | 1014.4 |
| 20260503184954 | 65 | 95 | 7.8 | 14.8 | 0.00 | 0.00 | 0.00 | 48 | 1014.4 |
| 20260503183928 | 64 | 55 | 6.1 | 13.9 | 0.00 | 0.00 | 0.00 | 48 | 1014.7 |
| 20260503182929 | 64 | 75 | 6.1 | 13.9 | 0.00 | 0.00 | 0.00 | 48 | 1014.7 |
| 20260503181904 | 65 | 42 | 7.8 | 13.0 | 0.00 | 0.00 | 0.00 | 47 | 1014.9 |
| 20260503180918 | 65 | 23 | 6.1 | 14.8 | 0.00 | 0.00 | 0.00 | 47 | 1015.0 |
| 20260503174748 | 62 | 65 | 7.0 | 12.2 | 0.00 | 0.00 | 0.00 | 48 | 1015.2 |
| 20260503170317 | 63 | 55 | 7.0 | 13.0 | 0.00 | 0.00 | 0.00 | 48 | 1015.8 |
| 20260503151010 | 56 | 41 | 5.2 | 11.3 | 0.00 | 0.00 | 0.00 | 62 | 1016.2 |
| 20260503130710 | 51 | 359 | 4.3 | 7.0 | 0.00 | 0.00 | 0.00 | 69 | 1015.8 |
| 20260503110527 | 50 | 352 | 4.3 | 7.8 | 0.00 | 0.01 | 0.00 | 69 | 1015.5 |
| 20260503090336 | 51 | 329 | 2.6 | 7.0 | 0.00 | 0.01 | 0.00 | 69 | 1016.5 |
| 20260503081306 | 50 | 345 | 3.5 | 7.8 | 0.00 | 0.01 | 0.00 | 70 | 1016.9 |
| 20260503080255 | 50 | 350 | 4.3 | 7.8 | 0.00 | 0.01 | 0.00 | 70 | 1016.9 |
| 20260503072053 | 50 | 359 | 4.3 | 9.6 | 0.00 | 0.01 | 0.00 | 71 | 1017.2 |
| 20260503071046 | 50 | 16 | 5.2 | 9.6 | 0.00 | 0.01 | 0.00 | 70 | 1017.3 |
| 20260503054931 | 51 | 340 | 4.3 | 7.8 | 0.00 | 0.06 | 0.06 | 68 | 1017.3 |
| 20260503053912 | 51 | 335 | 5.2 | 7.8 | 0.00 | 0.06 | 0.06 | 68 | 1017.3 |
| 20260503052856 | 51 | 335 | 4.3 | 7.8 | 0.00 | 0.06 | 0.06 | 68 | 1017.3 |
| 20260503051835 | 51 | 325 | 4.3 | 7.8 | 0.00 | 0.06 | 0.06 | 68 | 1017.5 |
| 20260503045712 | 51 | 321 | 4.3 | 8.7 | 0.00 | 0.09 | 0.06 | 68 | 1017.4 |
| 20260503044714 | 51 | 331 | 4.3 | 8.7 | 0.00 | 0.09 | 0.06 | 68 | 1017.3 |
| 20260503043703 | 51 | 326 | 4.3 | 7.0 | 0.00 | 0.09 | 0.06 | 69 | 1017.4 |
| 20260503042706 | 51 | 326 | 4.3 | 8.7 | 0.00 | 0.09 | 0.06 | 68 | 1017.4 |
| 20260503041646 | 51 | 4 | 5.2 | 9.6 | 0.00 | 0.09 | 0.06 | 68 | 1017.1 |
| 20260503040626 | 51 | 337 | 5.2 | 9.6 | 0.00 | 0.09 | 0.06 | 69 | 1017.0 |
| 20260503033313 | 52 | 359 | 5.2 | 9.6 | 0.00 | 0.09 | 0.06 | 68 | 1016.5 |
| 20260503032247 | 52 | 4 | 5.2 | 9.6 | 0.00 | 0.09 | 0.06 | 67 | 1016.6 |
| 20260503031310 | 52 | 355 | 5.2 | 9.6 | 0.00 | 0.09 | 0.06 | 67 | 1016.5 |
| 20260503030241 | 52 | 359 | 5.2 | 9.6 | 0.00 | 0.09 | 0.06 | 67 | 1016.4 |
| 20260503025218 | 52 | 4 | 5.2 | 8.7 | 0.00 | 0.09 | 0.06 | 67 | 1016.5 |